HDGA4: War Eagle Creek At Hindsville, AR

                                SHEF ID:       HDGA4     War Eagle Crk nr Hindsville,AR
STATION TYPE:

STAGE RIV-FLOW WTR-TEMP CONDUCT BAT-LOAD
ft cfs F umho/cm volt
Ccp-Rev Ccp-Rev Ccp-Rev Ccp-Rev Ccp-Rev
(America/Chicago)
12/01 00:00 1.14 143 45.10 ---- 11.67
12/01 01:00 1.14 143 44.96 ---- 11.66
12/01 02:00 1.14 143 44.91 ---- 11.66
12/01 03:00 1.13 141 44.91 ---- 11.65
12/01 04:00 1.13 141 44.73 ---- 11.65
12/01 05:00 1.13 141 44.74 ---- 11.64
12/01 06:00 1.13 141 44.65 ---- 11.63
12/01 07:00 1.13 141 44.55 ---- 11.62
12/01 08:00 1.12 139 44.62 ---- 11.62
12/01 09:00 1.12 139 44.73 ---- 11.64
12/01 10:00 1.12 139 44.87 ---- 11.68
12/01 11:00 1.11 138 45.09 ---- 11.73
12/01 12:00 1.11 138 45.43 ---- 11.83
12/01 13:00 1.11 138 45.41 ---- 12.03
12/01 14:00 1.11 138 45.30 ---- 11.82
12/01 15:00 1.11 138 45.41 ---- 11.77
12/01 16:00 1.10 136 45.28 ---- 11.74
12/01 17:00 1.10 136 45.57 ---- 11.71
12/01 18:00 1.10 136 45.59 ---- 11.68
12/01 19:00 1.10 136 45.18 ---- 11.68
12/01 20:00 1.10 136 45.19 ---- 11.66
12/01 21:00 1.09 134 44.73 ---- 11.65
12/01 22:00 1.09 134 44.42 ---- 11.65
12/01 23:00 1.09 134 44.22 ---- 11.64
Data processed at Mon 02Dec2024 05:13 GMT

Parsing this webpage?

Checkout our new Data API! CWMSDataAPI (CDA)

Timeseries IDs (TSIDs)

TSIDs used from left to right in the data table
HIND.Stage.Inst.1Hour.0.Ccp-Rev
HIND.Flow.Inst.1Hour.0.Ccp-Rev
HIND.Temp-Water.Inst.1Hour.0.Ccp-Rev
HIND.Cond.Inst.1Hour.0.Ccp-Rev
HIND.Volt-Battery Load.Inst.1Hour.0.Ccp-Rev

                            

All information presented herein is the property of the government of the United States of America and may be revised or deleted at any time without prior notice. Dissemination of this information without the expressed written consent of the Public Affairs Office, Tulsa District U.S. Army Corps of Engineers is strictly prohibited. These data are gathered electronically and, as presented, have NOT undergone any form of quality control. These data are NOT guaranteed to be valid or correct.